Location: Newark
(44.6028°N, 124.0883°W)
Time: 12:58:17
(UTC+00:00)

Vanguard 3 - Visible Passes

Search period start: 21 October 2019 00:00
Search period end: 31 October 2019 00:00
Orbit: 508 x 3262 km, 33.3° (Epoch: 20 October)

Date Brightness Start Highest point End Pass type
(mag) Time Alt. Az. Time Alt. Az. Time Alt. Az.
21 Oct 9.4 12:05:40 13° S 12:05:40 13° S 12:07:34 10° SSE visible
28 Oct 9.8 03:28:24 10° S 03:29:32 10° SSE 03:29:32 10° SSE visible
29 Oct 9.8 04:22:49 10° SSW 04:24:31 14° SSW 04:24:31 14° SSW visible
30 Oct 9.5 03:08:44 10° SSW 03:13:33 15° SSE 03:14:54 15° SSE visible
